| time (UTC) | temp F | wind direction | speed MPH | gust MPH | rain 1hr in | rain 24hr in | rain mn in | humidity % | barometer mb |
| 20260505210246 | 54 | 107 | 2.0 | 3.0 | 0.00 | 0.01 | 0.01 | 81 | 1007.6 |
| 20260505205743 | 54 | 50 | 6.0 | 13.0 | 0.00 | 0.01 | 0.01 | 81 | 1007.2 |
| 20260505205241 | 54 | 56 | 6.0 | 8.0 | 0.00 | 0.01 | 0.01 | 81 | 1007.5 |
| 20260505204737 | 54 | 115 | 4.0 | 6.0 | 0.00 | 0.01 | 0.01 | 82 | 1007.1 |
| 20260505204235 | 54 | 38 | 5.0 | 9.0 | 0.00 | 0.01 | 0.01 | 82 | 1007.0 |
| 20260505203732 | 54 | 143 | 6.0 | 11.0 | 0.00 | 0.01 | 0.01 | 83 | 1007.0 |
| 20260505203229 | 54 | 129 | 4.0 | 6.0 | 0.00 | 0.01 | 0.01 | 83 | 1007.0 |
| 20260505202725 | 54 | 172 | 6.0 | 8.0 | 0.00 | 0.01 | 0.01 | 83 | 1007.1 |
| 20260505202221 | 55 | 64 | 4.0 | 6.0 | 0.00 | 0.01 | 0.01 | 84 | 1007.1 |
| 20260505201718 | 55 | 122 | 4.0 | 4.0 | 0.00 | 0.01 | 0.01 | 84 | 1006.7 |
| 20260505201216 | 55 | 80 | 3.0 | 6.0 | 0.00 | 0.01 | 0.01 | 85 | 1007.1 |
| 20260505200713 | 55 | 71 | 5.0 | 9.0 | 0.00 | 0.01 | 0.01 | 85 | 1006.9 |
| 20260505200210 | 55 | 29 | 2.0 | 3.0 | 0.00 | 0.01 | 0.01 | 85 | 1007.2 |
| 20260505195706 | 55 | 70 | 3.0 | 6.0 | 0.00 | 0.01 | 0.01 | 84 | 1007.0 |
| 20260505195203 | 55 | 25 | 6.0 | 8.0 | 0.00 | 0.01 | 0.01 | 83 | 1007.0 |
| 20260505194701 | 55 | 354 | 6.0 | 9.0 | 0.00 | 0.01 | 0.01 | 83 | 1006.9 |
| 20260505194157 | 55 | 126 | 4.0 | 8.0 | 0.00 | 0.01 | 0.01 | 83 | 1006.9 |
| 20260505193653 | 56 | 276 | 8.0 | 14.0 | 0.00 | 0.01 | 0.01 | 83 | 1007.1 |
| 20260505193150 | 56 | 147 | 6.0 | 9.0 | 0.00 | 0.01 | 0.01 | 84 | 1006.8 |
| 20260505192649 | 56 | 170 | 3.0 | 6.0 | 0.00 | 0.01 | 0.01 | 83 | 1006.8 |
| 20260505192146 | 56 | 61 | 5.0 | 8.0 | 0.00 | 0.01 | 0.01 | 84 | 1006.7 |
| 20260505191644 | 55 | 127 | 8.0 | 15.0 | 0.00 | 0.01 | 0.01 | 84 | 1006.6 |
| 20260505191142 | 56 | 180 | 3.0 | 6.0 | 0.00 | 0.01 | 0.01 | 84 | 1006.5 |
| 20260505190638 | 56 | 148 | 5.0 | 7.0 | 0.00 | 0.01 | 0.01 | 85 | 1006.6 |
| 20260505190138 | 56 | 40 | 5.0 | 8.0 | 0.00 | 0.01 | 0.01 | 85 | 1006.5 |
| 20260505185635 | 56 | 62 | 3.0 | 4.0 | 0.00 | 0.01 | 0.01 | 86 | 1006.3 |
| 20260505185131 | 56 | 99 | 3.0 | 4.0 | 0.00 | 0.01 | 0.01 | 86 | 1006.8 |
| 20260505184628 | 56 | 37 | 2.0 | 3.0 | 0.00 | 0.01 | 0.01 | 86 | 1006.8 |
| 20260505184125 | 56 | 171 | 3.0 | 3.0 | 0.00 | 0.01 | 0.01 | 86 | 1006.7 |
| 20260505183622 | 56 | 53 | 6.0 | 8.0 | 0.00 | 0.01 | 0.01 | 86 | 1006.6 |
| 20260505183120 | 56 | 10 | 6.0 | 8.0 | 0.00 | 0.01 | 0.01 | 87 | 1006.3 |
| 20260505182615 | 56 | 57 | 3.0 | 3.0 | 0.00 | 0.01 | 0.01 | 86 | 1006.5 |
| 20260505182112 | 56 | 136 | 2.0 | 2.0 | 0.00 | 0.01 | 0.01 | 87 | 1005.9 |
| 20260505181609 | 56 | 133 | 2.0 | 2.0 | 0.00 | 0.01 | 0.01 | 88 | 1006.2 |
| 20260505181107 | 56 | 175 | 2.0 | 3.0 | 0.00 | 0.01 | 0.01 | 88 | 1005.9 |
| 20260505180602 | 56 | 194 | 2.0 | 3.0 | 0.00 | 0.01 | 0.01 | 88 | 1005.9 |
| 20260505180100 | 56 | 45 | 3.0 | 6.0 | 0.00 | 0.01 | 0.01 | 88 | 1006.1 |
| 20260505175555 | 56 | 146 | 4.0 | 4.0 | 0.00 | 0.01 | 0.01 | 88 | 1006.0 |
| 20260505175052 | 56 | 30 | 3.0 | 4.0 | 0.00 | 0.01 | 0.01 | 88 | 1006.1 |
| 20260505174549 | 56 | 47 | 3.0 | 3.0 | 0.00 | 0.01 | 0.01 | 88 | 1006.3 |
| 20260505174045 | 56 | 115 | 4.0 | 6.0 | 0.00 | 0.01 | 0.01 | 88 | 1006.1 |
| 20260505173542 | 56 | 166 | 4.0 | 7.0 | 0.00 | 0.01 | 0.01 | 89 | 1005.7 |
| 20260505173039 | 56 | 157 | 5.0 | 8.0 | 0.00 | 0.01 | 0.01 | 89 | 1005.6 |
| 20260505172537 | 56 | 131 | 1.0 | 2.0 | 0.00 | 0.01 | 0.01 | 89 | 1005.7 |
| 20260505172033 | 56 | 26 | 5.0 | 7.0 | 0.00 | 0.01 | 0.01 | 89 | 1005.5 |
| 20260505171528 | 56 | 119 | 4.0 | 6.0 | 0.00 | 0.01 | 0.01 | 89 | 1005.3 |
| 20260505171025 | 56 | 189 | 9.0 | 11.0 | 0.00 | 0.01 | 0.01 | 89 | 1005.3 |
| 20260505170522 | 56 | 27 | 5.0 | 10.0 | 0.00 | 0.01 | 0.01 | 89 | 1005.2 |
| 20260505170018 | 56 | 190 | 2.0 | 2.0 | 0.00 | 0.01 | 0.01 | 89 | 1005.4 |
| 20260505165513 | 56 | 35 | 3.0 | 7.0 | 0.00 | 0.01 | 0.01 | 89 | 1005.4 |
| 20260505165009 | 57 | 75 | 4.0 | 6.0 | 0.00 | 0.01 | 0.01 | 89 | 1005.3 |
| 20260505164506 | 57 | 21 | 6.0 | 9.0 | 0.00 | 0.01 | 0.01 | 89 | 1005.1 |
| 20260505164004 | 57 | 50 | 4.0 | 7.0 | 0.00 | 0.01 | 0.01 | 89 | 1005.1 |
| 20260505163502 | 58 | 318 | 3.0 | 3.0 | 0.00 | 0.01 | 0.01 | 89 | 1005.1 |
| 20260505163002 | 58 | 168 | 2.0 | 4.0 | 0.00 | 0.01 | 0.01 | 89 | 1004.8 |
| 20260505162456 | 58 | 166 | 3.0 | 9.0 | 0.00 | 0.01 | 0.01 | 89 | 1004.7 |
| 20260505161953 | 58 | 52 | 6.0 | 10.0 | 0.00 | 0.01 | 0.01 | 89 | 1004.7 |
| 20260505161450 | 59 | 127 | 4.0 | 6.0 | 0.00 | 0.01 | 0.01 | 89 | 1004.9 |
| 20260505160947 | 59 | 161 | 3.0 | 4.0 | 0.00 | 0.01 | 0.01 | 89 | 1005.0 |
| 20260505160446 | 59 | 48 | 3.0 | 4.0 | 0.00 | 0.01 | 0.01 | 89 | 1004.7 |
| 20260505152917 | 60 | 359 | 4.0 | 7.0 | 0.00 | 0.01 | 0.01 | 90 | 1004.2 |
| 20260505152414 | 60 | 68 | 3.0 | 3.0 | 0.00 | 0.01 | 0.01 | 90 | 1004.3 |
| 20260505151913 | 61 | 16 | 2.0 | 3.0 | 0.00 | 0.01 | 0.01 | 90 | 1004.2 |
| 20260505151410 | 61 | 358 | 3.0 | 4.0 | 0.00 | 0.01 | 0.01 | 90 | 1004.1 |
| 20260505150907 | 63 | 47 | 5.0 | 9.0 | 0.00 | 0.01 | 0.01 | 89 | 1004.0 |
| 20260505150404 | 65 | 42 | 2.0 | 3.0 | 0.00 | 0.01 | 0.01 | 89 | 1003.9 |
| 20260505140328 | 66 | 157 | 4.0 | 6.0 | 0.00 | 0.01 | 0.01 | 88 | 1003.2 |
| 20260505130251 | 66 | 72 | 1.0 | 2.0 | 0.00 | 0.01 | 0.01 | 87 | 1003.7 |
| 20260505124742 | 66 | 82 | 0.0 | 0.0 | 0.00 | 0.01 | 0.01 | 87 | 1003.4 |
| 20260505124239 | 66 | 149 | 2.0 | 3.0 | 0.00 | 0.01 | 0.01 | 87 | 1003.7 |
| 20260505123734 | 65 | 48 | 1.0 | 2.0 | 0.00 | 0.01 | 0.01 | 87 | 1003.4 |
| 20260505123231 | 65 | 66 | 1.0 | 1.0 | 0.00 | 0.01 | 0.01 | 88 | 1003.0 |
| 20260505122728 | 65 | 124 | 0.0 | 1.0 | 0.00 | 0.01 | 0.01 | 87 | 1002.8 |
| 20260505122225 | 65 | 124 | 1.0 | 2.0 | 0.00 | 0.01 | 0.01 | 88 | 1002.8 |
| 20260505121722 | 64 | 129 | 0.0 | 0.0 | 0.00 | 0.01 | 0.01 | 88 | 1002.9 |
| 20260505121218 | 64 | 87 | 1.0 | 2.0 | 0.00 | 0.01 | 0.01 | 88 | 1002.9 |
| 20260505120715 | 64 | 113 | 0.0 | 1.0 | 0.00 | 0.01 | 0.01 | 88 | 1002.8 |
| 20260505120211 | 64 | 121 | 0.0 | 0.0 | 0.00 | 0.01 | 0.01 | 88 | 1003.0 |
| 20260505115704 | 64 | 118 | 0.0 | 1.0 | 0.00 | 0.01 | 0.01 | 88 | 1002.9 |
| 20260505115203 | 64 | 161 | 0.0 | 1.0 | 0.00 | 0.01 | 0.01 | 88 | 1002.9 |
| 20260505114700 | 64 | 121 | 0.0 | 0.0 | 0.00 | 0.01 | 0.01 | 88 | 1003.0 |
| 20260505114156 | 64 | 110 | 0.0 | 1.0 | 0.00 | 0.01 | 0.01 | 89 | 1003.0 |
| 20260505113652 | 64 | 104 | 1.0 | 1.0 | 0.00 | 0.01 | 0.01 | 88 | 1003.0 |
| 20260505113149 | 64 | 116 | 1.0 | 2.0 | 0.00 | 0.01 | 0.01 | 88 | 1002.9 |
| 20260505112645 | 64 | 113 | 3.0 | 4.0 | 0.00 | 0.01 | 0.01 | 88 | 1003.0 |
| 20260505112144 | 64 | 115 | 0.0 | 1.0 | 0.00 | 0.01 | 0.01 | 88 | 1003.0 |
| 20260505111643 | 64 | 143 | 0.0 | 0.0 | 0.00 | 0.01 | 0.01 | 89 | 1003.0 |
| 20260505111139 | 64 | 142 | 2.0 | 2.0 | 0.00 | 0.01 | 0.01 | 89 | 1003.1 |
| 20260505110635 | 64 | 112 | 1.0 | 1.0 | 0.00 | 0.01 | 0.01 | 89 | 1002.9 |
| 20260505110133 | 64 | 113 | 3.0 | 4.0 | 0.00 | 0.01 | 0.01 | 89 | 1003.0 |
| 20260505102108 | 63 | 150 | 3.0 | 3.0 | 0.00 | 0.01 | 0.01 | 91 | 1002.7 |
| 20260505101607 | 63 | 135 | 1.0 | 1.0 | 0.00 | 0.01 | 0.01 | 91 | 1002.7 |
| 20260505101102 | 63 | 125 | 0.0 | 0.0 | 0.00 | 0.01 | 0.01 | 92 | 1002.7 |
| 20260505100559 | 63 | 116 | 1.0 | 2.0 | 0.00 | 0.01 | 0.01 | 92 | 1002.7 |
| 20260505100056 | 64 | 152 | 2.0 | 3.0 | 0.00 | 0.01 | 0.01 | 92 | 1002.8 |
| 20260505095552 | 64 | 125 | 2.0 | 2.0 | 0.00 | 0.01 | 0.01 | 93 | 1002.9 |
| 20260505095049 | 64 | 123 | 1.0 | 1.0 | 0.00 | 0.01 | 0.01 | 93 | 1002.6 |
| 20260505094545 | 64 | 292 | 1.0 | 1.0 | 0.00 | 0.01 | 0.01 | 93 | 1002.5 |
| 20260505094042 | 64 | 123 | 2.0 | 2.0 | 0.00 | 0.01 | 0.01 | 93 | 1002.5 |
| 20260505093538 | 64 | 137 | 3.0 | 3.0 | 0.00 | 0.01 | 0.01 | 93 | 1002.7 |
| 20260505093036 | 64 | 128 | 0.0 | 1.0 | 0.00 | 0.01 | 0.01 | 93 | 1002.6 |
| 20260505092533 | 64 | 113 | 0.0 | 1.0 | 0.00 | 0.01 | 0.01 | 93 | 1002.6 |
| 20260505092031 | 64 | 108 | 4.0 | 7.0 | 0.00 | 0.01 | 0.01 | 93 | 1002.7 |
| 20260505091528 | 64 | 132 | 2.0 | 3.0 | 0.00 | 0.01 | 0.01 | 93 | 1002.5 |
| 20260505091026 | 64 | 111 | 1.0 | 2.0 | 0.00 | 0.01 | 0.01 | 93 | 1002.6 |
| 20260505090524 | 64 | 123 | 2.0 | 3.0 | 0.00 | 0.01 | 0.01 | 93 | 1002.6 |
| 20260505090021 | 64 | 120 | 0.0 | 0.0 | 0.00 | 0.01 | 0.01 | 94 | 1002.4 |
| 20260505085519 | 63 | 152 | 3.0 | 4.0 | 0.00 | 0.01 | 0.01 | 94 | 1002.6 |
| 20260505085017 | 63 | 132 | 2.0 | 2.0 | 0.00 | 0.01 | 0.01 | 94 | 1002.8 |
| 20260505084515 | 63 | 104 | 1.0 | 1.0 | 0.00 | 0.01 | 0.01 | 94 | 1002.6 |
| 20260505084013 | 63 | 108 | 1.0 | 1.0 | 0.00 | 0.01 | 0.01 | 94 | 1002.8 |
| 20260505083510 | 63 | 166 | 3.0 | 3.0 | 0.00 | 0.01 | 0.01 | 94 | 1002.6 |
| 20260505083006 | 63 | 105 | 1.0 | 2.0 | 0.00 | 0.01 | 0.01 | 94 | 1002.6 |
| 20260505082502 | 63 | 112 | 1.0 | 2.0 | 0.00 | 0.01 | 0.01 | 94 | 1002.6 |
| 20260505081959 | 63 | 129 | 3.0 | 4.0 | 0.00 | 0.01 | 0.01 | 94 | 1002.7 |
| 20260505081456 | 63 | 104 | 0.0 | 1.0 | 0.00 | 0.01 | 0.01 | 94 | 1002.8 |
| 20260505080952 | 63 | 138 | 1.0 | 2.0 | 0.00 | 0.01 | 0.01 | 94 | 1002.8 |
| 20260505080448 | 63 | 159 | 1.0 | 1.0 | 0.00 | 0.01 | 0.01 | 93 | 1002.8 |
| 20260505075944 | 63 | 129 | 2.0 | 3.0 | 0.00 | 0.01 | 0.01 | 93 | 1002.7 |
| 20260505075441 | 63 | 167 | 0.0 | 1.0 | 0.00 | 0.01 | 0.01 | 93 | 1002.9 |
| 20260505074938 | 63 | 104 | 1.0 | 1.0 | 0.00 | 0.01 | 0.01 | 93 | 1003.0 |
| 20260505074436 | 62 | 66 | 2.0 | 2.0 | 0.00 | 0.01 | 0.01 | 93 | 1002.9 |
| 20260505073932 | 62 | 112 | 3.0 | 4.0 | 0.00 | 0.01 | 0.01 | 93 | 1003.2 |
| 20260505073430 | 63 | 155 | 3.0 | 3.0 | 0.00 | 0.01 | 0.01 | 94 | 1003.4 |
| 20260505072927 | 62 | 114 | 1.0 | 2.0 | 0.00 | 0.01 | 0.01 | 94 | 1003.5 |
| 20260505072423 | 63 | 190 | 4.0 | 7.0 | 0.00 | 0.01 | 0.01 | 93 | 1003.5 |
| 20260505071920 | 63 | 44 | 2.0 | 8.0 | 0.00 | 0.01 | 0.01 | 93 | 1004.0 |
| 20260505071416 | 63 | 215 | 4.0 | 6.0 | 0.00 | 0.01 | 0.01 | 92 | 1004.0 |
| 20260505070914 | 64 | 169 | 2.0 | 2.0 | 0.00 | 0.01 | 0.01 | 91 | 1004.3 |
| 20260505070410 | 65 | 79 | 3.0 | 4.0 | 0.00 | 0.01 | 0.01 | 89 | 1004.1 |
| 20260505065906 | 66 | 161 | 2.0 | 3.0 | 0.00 | 0.01 | 0.01 | 87 | 1004.0 |
| 20260505065402 | 66 | 95 | 1.0 | 2.0 | 0.00 | 0.01 | 0.01 | 87 | 1003.9 |
| 20260505064859 | 65 | 167 | 2.0 | 4.0 | 0.05 | 0.01 | 0.01 | 88 | 1004.2 |
| 20260505064356 | 66 | 40 | 1.0 | 2.0 | 0.05 | 0.01 | 0.01 | 88 | 1004.1 |
| 20260505063855 | 65 | 66 | 1.0 | 2.0 | 0.00 | 0.00 | 0.00 | 88 | 1004.1 |
| 20260505063355 | 65 | 52 | 1.0 | 2.0 | 0.00 | 0.00 | 0.00 | 89 | 1003.9 |
| 20260505062852 | 65 | 124 | 1.0 | 1.0 | 0.00 | 0.00 | 0.00 | 89 | 1003.9 |
| 20260505062349 | 65 | 49 | 2.0 | 2.0 | 0.00 | 0.00 | 0.00 | 91 | 1004.3 |
| 20260505061846 | 64 | 82 | 2.0 | 3.0 | 0.00 | 0.00 | 0.00 | 92 | 1003.9 |
| 20260505061344 | 64 | 51 | 0.0 | 0.0 | 0.00 | 0.00 | 0.00 | 92 | 1003.6 |
| 20260505060841 | 64 | 99 | 1.0 | 1.0 | 0.00 | 0.00 | 0.00 | 92 | 1003.0 |
| 20260505060338 | 64 | 159 | 0.0 | 0.0 | 0.00 | 0.00 | 0.00 | 91 | 1002.9 |
| 20260505055834 | 64 | 173 | 0.0 | 1.0 | 0.00 | 0.00 | 0.00 | 92 | 1002.7 |
| 20260505055330 | 64 | 121 | 0.0 | 0.0 | 0.00 | 0.00 | 0.00 | 92 | 1002.5 |
| 20260505054828 | 64 | 121 | 0.0 | 0.0 | 0.00 | 0.00 | 0.00 | 92 | 1002.7 |
| 20260505054325 | 64 | 122 | 0.0 | 1.0 | 0.00 | 0.00 | 0.00 | 92 | 1002.7 |
| 20260505053823 | 64 | 162 | 0.0 | 1.0 | 0.00 | 0.00 | 0.00 | 91 | 1002.7 |
| 20260505053320 | 64 | 132 | 1.0 | 1.0 | 0.00 | 0.00 | 0.00 | 91 | 1002.8 |
| 20260505052817 | 64 | 174 | 1.0 | 2.0 | 0.00 | 0.00 | 0.00 | 92 | 1002.6 |
| 20260505052314 | 63 | 129 | 0.0 | 0.0 | 0.00 | 0.00 | 0.00 | 92 | 1002.5 |
| 20260505051811 | 63 | 184 | 0.0 | 0.0 | 0.00 | 0.00 | 0.00 | 93 | 1002.5 |
| 20260505051308 | 63 | 140 | 0.0 | 0.0 | 0.00 | 0.00 | 0.00 | 92 | 1002.5 |
| 20260505050806 | 63 | 209 | 1.0 | 1.0 | 0.00 | 0.00 | 0.00 | 93 | 1002.6 |
| 20260505050305 | 64 | 189 | 0.0 | 1.0 | 0.00 | 0.00 | 0.00 | 92 | 1002.9 |
| 20260505041734 | 71 | 153 | 2.0 | 3.0 | 0.00 | 0.00 | 0.00 | 65 | 1002.9 |
| 20260505041231 | 71 | 212 | 5.0 | 8.0 | 0.00 | 0.00 | 0.00 | 65 | 1003.2 |
| 20260505040728 | 71 | 116 | 2.0 | 7.0 | 0.00 | 0.00 | 0.00 | 65 | 1003.2 |
| 20260505040225 | 71 | 301 | 2.0 | 3.0 | 0.00 | 0.00 | 0.00 | 65 | 1002.6 |
| 20260505035723 | 71 | 339 | 2.0 | 4.0 | 0.00 | 0.00 | 0.00 | 65 | 1002.9 |
| 20260505035218 | 71 | 229 | 4.0 | 7.0 | 0.00 | 0.00 | 0.00 | 65 | 1002.9 |
| 20260505034715 | 71 | 97 | 2.0 | 3.0 | 0.00 | 0.00 | 0.00 | 65 | 1002.9 |
| 20260505034212 | 71 | 253 | 4.0 | 6.0 | 0.00 | 0.00 | 0.00 | 65 | 1003.1 |
| 20260505033708 | 71 | 96 | 1.0 | 1.0 | 0.00 | 0.00 | 0.00 | 65 | 1003.2 |
| 20260505033207 | 71 | 94 | 1.0 | 1.0 | 0.00 | 0.00 | 0.00 | 65 | 1003.6 |
| 20260505032705 | 71 | 197 | 2.0 | 3.0 | 0.00 | 0.00 | 0.00 | 66 | 1003.7 |
| 20260505032200 | 71 | 91 | 4.0 | 4.0 | 0.00 | 0.00 | 0.00 | 65 | 1004.0 |
| 20260505031658 | 71 | 180 | 3.0 | 4.0 | 0.00 | 0.00 | 0.00 | 65 | 1004.1 |
| 20260505031154 | 71 | 181 | 1.0 | 1.0 | 0.00 | 0.00 | 0.00 | 65 | 1004.1 |
| 20260505030651 | 71 | 229 | 4.0 | 4.0 | 0.00 | 0.00 | 0.00 | 65 | 1004.2 |
| 20260505030147 | 71 | 201 | 2.0 | 2.0 | 0.00 | 0.00 | 0.00 | 66 | 1004.2 |
| 20260505025643 | 71 | 214 | 3.0 | 3.0 | 0.00 | 0.00 | 0.00 | 65 | 1004.1 |
| 20260505025142 | 71 | 212 | 4.0 | 4.0 | 0.00 | 0.00 | 0.00 | 66 | 1004.0 |
| 20260505024639 | 71 | 219 | 4.0 | 6.0 | 0.00 | 0.00 | 0.00 | 66 | 1004.1 |
| 20260505024136 | 71 | 217 | 4.0 | 6.0 | 0.00 | 0.00 | 0.00 | 66 | 1004.0 |
| 20260505023633 | 71 | 223 | 1.0 | 2.0 | 0.00 | 0.00 | 0.00 | 66 | 1004.0 |
| 20260505023130 | 71 | 229 | 2.0 | 3.0 | 0.00 | 0.00 | 0.00 | 66 | 1004.1 |
| 20260505022628 | 71 | 129 | 0.0 | 0.0 | 0.00 | 0.00 | 0.00 | 67 | 1003.9 |
| 20260505022124 | 71 | 157 | 0.0 | 1.0 | 0.00 | 0.00 | 0.00 | 66 | 1003.8 |
| 20260505021621 | 71 | 98 | 3.0 | 4.0 | 0.00 | 0.00 | 0.00 | 66 | 1003.9 |
| 20260505021118 | 72 | 220 | 2.0 | 2.0 | 0.00 | 0.00 | 0.00 | 66 | 1003.9 |
| 20260505020613 | 72 | 209 | 2.0 | 3.0 | 0.00 | 0.00 | 0.00 | 66 | 1004.0 |
| 20260505020110 | 72 | 210 | 1.0 | 1.0 | 0.00 | 0.00 | 0.00 | 65 | 1004.0 |
| 20260505015607 | 72 | 228 | 2.0 | 2.0 | 0.00 | 0.00 | 0.00 | 65 | 1004.0 |
| 20260505015104 | 72 | 204 | 2.0 | 2.0 | 0.00 | 0.00 | 0.00 | 64 | 1003.7 |
| 20260505014600 | 72 | 237 | 5.0 | 6.0 | 0.00 | 0.00 | 0.00 | 64 | 1003.8 |
| 20260505014058 | 72 | 217 | 3.0 | 3.0 | 0.00 | 0.00 | 0.00 | 63 | 1003.6 |
| 20260505013555 | 72 | 229 | 3.0 | 4.0 | 0.00 | 0.00 | 0.00 | 64 | 1003.6 |
| 20260505013052 | 73 | 233 | 2.0 | 4.0 | 0.00 | 0.00 | 0.00 | 63 | 1003.8 |
| 20260505012550 | 73 | 222 | 4.0 | 7.0 | 0.00 | 0.00 | 0.00 | 62 | 1003.7 |
| 20260505012047 | 73 | 192 | 3.0 | 3.0 | 0.00 | 0.00 | 0.00 | 62 | 1003.7 |
| 20260505011542 | 73 | 284 | 1.0 | 1.0 | 0.00 | 0.00 | 0.00 | 63 | 1003.6 |
| 20260505011040 | 73 | 191 | 6.0 | 7.0 | 0.00 | 0.00 | 0.00 | 62 | 1003.6 |
| 20260505010535 | 73 | 229 | 4.0 | 6.0 | 0.00 | 0.00 | 0.00 | 62 | 1003.6 |
| 20260505010032 | 73 | 192 | 3.0 | 4.0 | 0.00 | 0.00 | 0.00 | 63 | 1003.4 |
| 20260505005528 | 74 | 218 | 4.0 | 4.0 | 0.00 | 0.00 | 0.00 | 63 | 1003.5 |
| 20260505005026 | 74 | 187 | 2.0 | 2.0 | 0.00 | 0.00 | 0.00 | 63 | 1003.5 |
| 20260505004523 | 74 | 223 | 2.0 | 2.0 | 0.00 | 0.00 | 0.00 | 63 | 1003.4 |
| 20260505004019 | 75 | 222 | 5.0 | 8.0 | 0.00 | 0.00 | 0.00 | 62 | 1003.4 |
| 20260505003517 | 75 | 191 | 5.0 | 6.0 | 0.00 | 0.00 | 0.00 | 62 | 1003.5 |
| 20260505003014 | 75 | 226 | 4.0 | 4.0 | 0.00 | 0.00 | 0.00 | 62 | 1003.4 |
| 20260505002509 | 75 | 214 | 6.0 | 9.0 | 0.00 | 0.00 | 0.00 | 61 | 1003.4 |
| 20260505002008 | 75 | 217 | 6.0 | 7.0 | 0.00 | 0.00 | 0.00 | 62 | 1003.4 |
| 20260505001505 | 75 | 221 | 4.0 | 6.0 | 0.00 | 0.00 | 0.00 | 62 | 1003.5 |
| 20260505001002 | 75 | 239 | 6.0 | 8.0 | 0.00 | 0.00 | 0.00 | 61 | 1003.4 |
| 20260505000500 | 75 | 161 | 4.0 | 6.0 | 0.00 | 0.00 | 0.00 | 62 | 1003.5 |
| 20260504235956 | 75 | 237 | 4.0 | 8.0 | 0.00 | 0.00 | 0.00 | 61 | 1003.4 |
| 20260504235453 | 75 | 227 | 4.0 | 6.0 | 0.00 | 0.00 | 0.00 | 61 | 1003.5 |
| 20260504234950 | 76 | 224 | 8.0 | 9.0 | 0.00 | 0.00 | 0.00 | 60 | 1003.4 |
| 20260504234447 | 76 | 226 | 9.0 | 10.0 | 0.00 | 0.00 | 0.00 | 59 | 1003.4 |
| 20260504233943 | 76 | 200 | 6.0 | 7.0 | 0.00 | 0.00 | 0.00 | 60 | 1003.4 |
| 20260504233439 | 76 | 213 | 5.0 | 7.0 | 0.00 | 0.00 | 0.00 | 59 | 1003.5 |
| 20260504232936 | 76 | 227 | 5.0 | 7.0 | 0.00 | 0.00 | 0.00 | 59 | 1003.5 |
| 20260504232433 | 76 | 231 | 6.0 | 7.0 | 0.00 | 0.00 | 0.00 | 59 | 1003.3 |
| 20260504231931 | 76 | 230 | 9.0 | 10.0 | 0.00 | 0.00 | 0.00 | 58 | 1003.3 |
| 20260504231427 | 76 | 221 | 6.0 | 8.0 | 0.00 | 0.00 | 0.00 | 60 | 1003.5 |
| 20260504230923 | 76 | 233 | 9.0 | 10.0 | 0.00 | 0.00 | 0.00 | 59 | 1003.5 |
| 20260504230420 | 77 | 230 | 7.0 | 8.0 | 0.00 | 0.00 | 0.00 | 58 | 1003.5 |
| 20260504225919 | 77 | 234 | 11.0 | 14.0 | 0.00 | 0.00 | 0.00 | 58 | 1003.6 |
| 20260504225415 | 77 | 224 | 5.0 | 7.0 | 0.00 | 0.00 | 0.00 | 58 | 1003.4 |
| 20260504224913 | 77 | 231 | 3.0 | 4.0 | 0.00 | 0.00 | 0.00 | 58 | 1003.3 |
| 20260504224409 | 77 | 191 | 8.0 | 11.0 | 0.00 | 0.00 | 0.00 | 57 | 1003.3 |
| 20260504223907 | 77 | 216 | 7.0 | 8.0 | 0.00 | 0.00 | 0.00 | 58 | 1003.7 |
| 20260504223402 | 77 | 226 | 7.0 | 9.0 | 0.00 | 0.00 | 0.00 | 57 | 1003.5 |
| 20260504222858 | 78 | 81 | 1.0 | 1.0 | 0.00 | 0.00 | 0.00 | 57 | 1003.3 |
| 20260504222355 | 78 | 207 | 3.0 | 8.0 | 0.00 | 0.00 | 0.00 | 57 | 1003.6 |
| 20260504221854 | 78 | 243 | 10.0 | 15.0 | 0.00 | 0.00 | 0.00 | 54 | 1003.4 |
| 20260504221350 | 77 | 216 | 9.0 | 10.0 | 0.00 | 0.00 | 0.00 | 55 | 1003.6 |
| 20260504220847 | 78 | 210 | 13.0 | 16.0 | 0.00 | 0.00 | 0.00 | 54 | 1003.6 |
| 20260504220344 | 78 | 220 | 11.0 | 14.0 | 0.00 | 0.00 | 0.00 | 55 | 1003.6 |
| 20260504215841 | 78 | 241 | 4.0 | 8.0 | 0.00 | 0.00 | 0.00 | 57 | 1003.6 |
| 20260504215337 | 78 | 234 | 8.0 | 10.0 | 0.00 | 0.00 | 0.00 | 54 | 1003.7 |
| 20260504214834 | 78 | 266 | 14.0 | 18.0 | 0.00 | 0.00 | 0.00 | 53 | 1003.8 |
| 20260504214331 | 78 | 224 | 14.0 | 17.0 | 0.00 | 0.00 | 0.00 | 53 | 1003.9 |
| 20260504213827 | 79 | 224 | 10.0 | 11.0 | 0.00 | 0.00 | 0.00 | 55 | 1003.8 |
| 20260504213323 | 79 | 237 | 6.0 | 8.0 | 0.00 | 0.00 | 0.00 | 55 | 1003.8 |
| 20260504212821 | 78 | 245 | 6.0 | 9.0 | 0.00 | 0.00 | 0.00 | 54 | 1003.8 |
| 20260504212317 | 79 | 236 | 9.0 | 11.0 | 0.00 | 0.00 | 0.00 | 53 | 1003.7 |
| 20260504211815 | 79 | 254 | 12.0 | 13.0 | 0.00 | 0.00 | 0.00 | 52 | 1003.8 |
| 20260504211310 | 79 | 300 | 2.0 | 4.0 | 0.00 | 0.00 | 0.00 | 53 | 1003.9 |
| 20260504210808 | 79 | 233 | 11.0 | 14.0 | 0.00 | 0.00 | 0.00 | 54 | 1003.7 |